Tracking 28793 objects as of 20-Apr-2024
HD Live streaming from Space Station
objects crossing your sky now

STARLINK-4031

Track STARLINK-4031 now!
10-day predictions
STARLINK-4031 is classified as:


NORAD ID: 52679
Int'l Code: 2022-053Z
Perigee: 545.9 km
Apogee: 547.5 km
Inclination: 53.2 °
Period: 95.4 minutes
Semi major axis: 6917 km
RCS: Unknown
Launch date: May 18, 2022
Source: United States (US)
Launch site: AIR FORCE EASTERN TEST RANGE (AFETR)
Your satellite tracking list
Your tracking list is empty




NASA's NSSDC Master Catalog

Two Line Element Set (TLE):
1 52679U 22053Z   24110.91683880  .00055869  00000-0  34950-2 0  9998
2 52679  53.2161 356.1252 0001145  71.5576 288.5541 15.08900885107156
Source of the keplerian elements: AFSPC